FW6620 Weather Reports


time (UTC)temp
C
wind
direction
speed
KPH
gust
KPH
rain 1hr
cm
rain 24hr
cm
rain mn
cm
humidity
%
barometer
mb
20260510141557 23 16 0.0 3.2 0.00 0.00 0.00 87 1014.3
20260510141045 23 0 0.0 3.2 0.00 0.00 0.00 87 1014.3
20260510140548 23 16 0.0 3.2 0.00 0.00 0.00 88 1014.2
20260510140050 22 16 0.0 4.8 0.00 0.00 0.00 89 1014.1
20260510135545 22 0 0.0 4.8 0.00 0.00 0.00 89 1014.1
20260510135046 22 0 0.0 3.2 0.00 0.00 0.00 89 1014.1
20260510134552 22 0 0.0 3.2 0.00 0.00 0.00 89 1013.9
20260510134048 22 0 0.0 3.2 0.00 0.00 0.00 90 1013.9
20260510133546 22 16 0.0 3.2 0.00 0.00 0.00 90 1013.8
20260510133050 22 0 0.0 3.2 0.00 0.00 0.00 91 1013.8
20260510132548 21 0 0.0 3.2 0.00 0.00 0.00 91 1013.8
20260510132049 21 16 0.0 3.2 0.00 0.00 0.00 91 1013.6
20260510131555 21 16 0.0 3.2 0.00 0.00 0.00 91 1013.4
20260510131047 21 0 0.0 4.8 0.00 0.00 0.00 92 1013.4
20260510130549 21 0 0.0 3.2 0.00 0.00 0.00 92 1013.4
20260510130051 21 16 0.0 3.2 0.00 0.00 0.00 92 1013.3
20260510125547 21 0 0.0 1.6 0.00 0.00 0.00 92 1013.2
20260510125047 21 0 0.0 3.2 0.00 0.00 0.00 92 1013.0
20260510124559 21 0 0.0 3.2 0.00 0.00 0.00 92 1012.9
20260510124050 20 0 0.0 3.2 0.00 0.00 0.00 92 1012.9
20260510123546 20 0 0.0 1.6 0.00 0.00 0.00 92 1012.9
20260510123052 20 0 0.0 1.6 0.00 0.00 0.00 92 1013.0
20260510122545 20 0 0.0 1.6 0.00 0.00 0.00 92 1012.8
20260510122045 20 0 0.0 1.6 0.00 0.00 0.00 92 1012.7
20260510121554 20 0 0.0 1.6 0.00 0.00 0.00 92 1012.7
20260510121048 20 0 0.0 0.0 0.00 0.00 0.00 92 1012.5
20260510120546 20 0 0.0 0.0 0.00 0.00 0.00 92 1012.4
20260510120058 20 0 0.0 0.0 0.00 0.00 0.00 92 1012.4
20260510115547 20 0 0.0 0.0 0.00 0.00 0.00 91 1012.3
20260510115047 20 0 0.0 0.0 0.00 0.00 0.00 91 1012.2
20260510114553 20 0 0.0 0.0 0.00 0.00 0.00 91 1012.1
20260510114046 20 0 0.0 0.0 0.00 0.00 0.00 91 1012.1
20260510113546 20 0 0.0 0.0 0.00 0.00 0.00 90 1012.2
20260510113050 20 0 0.0 0.0 0.00 0.00 0.00 90 1012.1
20260510112548 20 0 0.0 0.0 0.00 0.00 0.00 90 1012.1
20260510112046 21 0 0.0 0.0 0.00 0.00 0.00 90 1012.2
20260510111549 21 0 0.0 0.0 0.00 0.00 0.00 90 1012.0
20260510111045 21 0 0.0 0.0 0.00 0.00 0.00 90 1011.9
20260510110546 21 0 0.0 0.0 0.00 0.00 0.00 90 1011.9
20260510110051 21 0 0.0 0.0 0.00 0.00 0.00 89 1011.9
20260510105545 21 0 0.0 0.0 0.00 0.00 0.00 89 1011.9
20260510105049 21 0 0.0 0.0 0.00 0.00 0.00 90 1011.9
20260510104553 21 0 0.0 4.8 0.00 0.00 0.00 90 1011.7
20260510104046 21 0 0.0 4.8 0.00 0.00 0.00 90 1011.6
20260510103547 21 16 0.0 4.8 0.00 0.00 0.00 89 1011.4
20260510103051 21 0 1.6 4.8 0.00 0.00 0.00 89 1011.4
20260510102548 21 16 0.0 4.8 0.00 0.00 0.00 89 1011.4
20260510102048 21 0 0.0 4.8 0.00 0.00 0.00 89 1011.6
20260510101547 21 16 0.0 4.8 0.00 0.00 0.00 89 1011.5
20260510101047 21 0 0.0 4.8 0.00 0.00 0.00 89 1011.5
20260510100547 21 16 0.0 4.8 0.00 0.00 0.00 89 1011.5
20260510100107 21 16 0.0 4.8 0.00 0.00 0.00 89 1011.4
20260510095546 21 0 0.0 3.2 0.00 0.00 0.00 90 1011.6
20260510095049 21 0 0.0 6.4 0.00 0.00 0.00 90 1011.5
20260510094603 21 0 0.0 4.8 0.00 0.00 0.00 90 1011.5
20260510094045 21 17 0.0 4.8 0.00 0.00 0.00 90 1011.4
20260510093545 21 0 0.0 4.8 0.00 0.00 0.00 89 1011.4
20260510093057 21 17 0.0 4.8 0.00 0.00 0.00 89 1011.4
20260510092545 21 0 0.0 3.2 0.00 0.00 0.00 89 1011.5
20260510092046 21 0 0.0 3.2 0.00 0.00 0.00 89 1011.4
20260510091548 21 0 0.0 3.2 0.00 0.00 0.00 89 1011.3
20260510091047 21 0 0.0 3.2 0.00 0.00 0.00 89 1011.3
20260510090547 21 0 0.0 3.2 0.00 0.00 0.00 89 1011.6
20260510090056 21 0 0.0 0.0 0.00 0.00 0.00 88 1011.4
20260510085549 21 0 0.0 0.0 0.00 0.00 0.00 88 1011.5
20260510085047 21 0 0.0 0.0 0.00 0.00 0.00 87 1011.4
20260510084609 21 0 0.0 0.0 0.00 0.00 0.00 87 1011.5
20260510084048 21 0 0.0 0.0 0.00 0.00 0.00 87 1011.4
20260510083546 21 0 0.0 0.0 0.00 0.00 0.00 86 1011.5
20260510083052 21 0 0.0 0.0 0.00 0.00 0.00 86 1011.6
20260510082545 21 0 0.0 0.0 0.00 0.00 0.00 85 1011.7
20260510082045 21 0 0.0 0.0 0.00 0.00 0.00 85 1011.7
20260510081555 21 0 0.0 0.0 0.00 0.00 0.00 85 1011.7
20260510081044 22 0 0.0 0.0 0.00 0.00 0.00 84 1011.7
20260510080548 22 0 0.0 0.0 0.00 0.00 0.00 84 1011.8
20260510080048 22 0 0.0 0.0 0.00 0.00 0.00 84 1011.8
20260510075547 22 0 0.0 0.0 0.00 0.00 0.00 83 1011.7
20260510075047 22 0 0.0 0.0 0.00 0.00 0.00 83 1011.7
20260510074553 22 0 0.0 0.0 0.00 0.00 0.00 83 1011.7
20260510074047 22 0 0.0 0.0 0.00 0.00 0.00 83 1011.7
20260510073546 22 0 0.0 0.0 0.00 0.00 0.00 83 1011.6
20260510073102 22 0 0.0 0.0 0.00 0.00 0.00 82 1011.6
20260510072548 22 0 0.0 1.6 0.00 0.00 0.00 82 1011.8
20260510072046 22 0 0.0 1.6 0.00 0.00 0.00 82 1011.8
20260510071547 22 0 0.0 1.6 0.00 0.00 0.00 82 1011.8
20260510071045 22 0 0.0 1.6 0.00 0.00 0.00 81 1011.8
20260510070545 22 0 0.0 3.2 0.00 0.00 0.00 81 1011.8
20260510070054 22 0 0.0 3.2 0.00 0.00 0.00 81 1011.8
20260510065546 22 0 0.0 1.6 0.00 0.00 0.00 81 1011.8
20260510065046 22 0 0.0 0.0 0.00 0.00 0.00 81 1011.7
20260510064551 22 0 0.0 0.0 0.00 0.00 0.00 81 1011.7
20260510064045 22 0 0.0 4.8 0.00 0.00 0.00 82 1011.6
20260510063547 22 0 0.0 4.8 0.00 0.00 0.00 81 1011.6
20260510063052 22 0 0.0 3.2 0.00 0.00 0.00 81 1011.7
20260510062546 22 0 0.0 1.6 0.00 0.00 0.00 82 1011.7
20260510062048 22 0 0.0 1.6 0.00 0.00 0.00 83 1011.8
20260510061555 22 0 0.0 1.6 0.00 0.00 0.00 83 1011.6
20260510061049 22 0 0.0 1.6 0.00 0.00 0.00 83 1011.5
20260510060547 22 0 0.0 1.6 0.00 0.00 0.00 83 1011.5
20260510060054 22 0 0.0 1.6 0.00 0.00 0.00 83 1011.5
20260510055545 22 0 0.0 0.0 0.00 0.00 0.00 82 1011.5
20260510055048 22 0 0.0 0.0 0.00 0.00 0.00 83 1011.4
20260510054554 22 0 0.0 0.0 0.00 0.00 0.00 84 1011.5
20260510054046 22 0 0.0 0.0 0.00 0.00 0.00 86 1011.5
20260510053545 22 0 0.0 0.0 0.00 0.00 0.00 86 1011.5
20260510053100 22 0 0.0 0.0 0.00 0.00 0.00 85 1011.6
20260510052545 23 0 0.0 0.0 0.00 0.00 0.00 86 1011.5
20260510052045 23 0 0.0 0.0 0.00 0.00 0.00 86 1011.6
20260510051552 23 0 0.0 0.0 0.00 0.00 0.00 85 1011.6
20260510051046 23 0 0.0 0.0 0.00 0.00 0.00 85 1011.5
20260510050545 23 0 0.0 0.0 0.00 0.00 0.00 85 1011.5
20260510050057 23 0 0.0 0.0 0.00 0.00 0.00 85 1011.6
20260510045545 23 0 0.0 0.0 0.00 0.00 0.00 84 1011.5
20260510045047 23 0 0.0 0.0 0.00 0.00 0.00 84 1011.5
20260510044558 23 0 0.0 0.0 0.00 0.00 0.00 85 1011.5
20260510044046 23 0 0.0 1.6 0.00 0.00 0.00 85 1011.4
20260510043547 23 0 0.0 1.6 0.00 0.00 0.00 85 1011.4
20260510043108 23 0 0.0 1.6 0.00 0.00 0.00 85 1011.5
20260510042545 23 0 0.0 0.0 0.00 0.00 0.00 85 1011.4
20260510042045 24 0 0.0 0.0 0.00 0.00 0.00 85 1011.3
20260510041558 24 0 0.0 0.0 0.00 0.00 0.00 84 1011.2
20260510041045 24 0 0.0 0.0 0.00 0.00 0.00 84 1011.4
20260510040546 24 0 0.0 0.0 0.00 0.00 0.00 83 1011.3
20260510040059 24 0 0.0 0.0 0.00 0.00 0.00 83 1011.2
20260510035545 24 0 0.0 0.0 0.00 0.00 0.00 83 1011.1
20260510035045 25 0 0.0 0.0 0.00 0.00 0.00 82 1011.1
20260510034559 25 0 0.0 0.0 0.00 0.00 0.00 82 1011.1
20260510034046 25 0 0.0 0.0 0.00 0.00 0.00 82 1011.0
20260510033547 25 0 0.0 0.0 0.00 0.00 0.00 81 1011.0
20260510033126 25 0 0.0 0.0 0.00 0.00 0.00 82 1010.9
20260510032547 25 0 0.0 0.0 0.00 0.00 0.00 81 1010.8
20260510032045 25 0 0.0 0.0 0.00 0.00 0.00 80 1010.8
20260510031558 25 0 0.0 0.0 0.00 0.00 0.00 80 1010.7
20260510031045 26 0 0.0 0.0 0.00 0.00 0.00 80 1010.7
20260510030545 26 0 0.0 0.0 0.00 0.00 0.00 79 1010.7
20260510030057 26 0 0.0 0.0 0.00 0.00 0.00 79 1010.7
20260510025545 26 0 0.0 0.0 0.00 0.00 0.00 78 1010.6
20260510025046 26 0 0.0 0.0 0.00 0.00 0.00 78 1010.5
20260510024547 26 0 0.0 0.0 0.00 0.00 0.00 78 1010.4
20260510024047 26 0 0.0 1.6 0.00 0.00 0.00 78 1010.3
20260510023545 27 0 0.0 1.6 0.00 0.00 0.00 78 1010.2
20260510023048 27 0 0.0 0.0 0.00 0.00 0.00 77 1010.1
20260510022545 27 0 0.0 1.6 0.00 0.00 0.00 77 1010.1
20260510022047 27 0 0.0 1.6 0.00 0.00 0.00 77 1010.1
20260510021546 27 0 0.0 4.8 0.00 0.00 0.00 77 1010.0
20260510021044 27 0 0.0 4.8 0.00 0.00 0.00 77 1009.9
20260510020546 27 0 0.0 4.8 0.00 0.00 0.00 77 1009.9
20260510020049 27 0 0.0 4.8 0.00 0.00 0.00 77 1009.8
20260510015546 27 17 0.0 4.8 0.00 0.00 0.00 77 1009.8
20260510015046 27 0 0.0 3.2 0.00 0.00 0.00 76 1009.7
20260510014551 27 0 0.0 0.0 0.00 0.00 0.00 76 1009.7
20260510014045 27 0 0.0 0.0 0.00 0.00 0.00 75 1009.6
20260510013546 27 0 0.0 0.0 0.00 0.00 0.00 74 1009.5
20260510013046 27 0 0.0 0.0 0.00 0.00 0.00 74 1009.4
20260510012551 28 0 0.0 0.0 0.00 0.00 0.00 74 1009.4
20260510012045 28 0 0.0 4.8 0.00 0.00 0.00 73 1009.5
20260510011549 28 0 0.0 4.8 0.00 0.00 0.00 72 1009.3
20260510011048 28 0 0.0 3.2 0.00 0.00 0.00 72 1009.3
20260510010546 28 0 0.0 1.6 0.00 0.00 0.00 70 1009.3
20260510010051 28 0 0.0 3.2 0.00 0.00 0.00 70 1009.3
20260510005547 28 0 0.0 3.2 0.00 0.00 0.00 70 1009.3
20260510005047 28 0 0.0 3.2 0.00 0.00 0.00 70 1009.2
20260510004548 28 0 0.0 4.8 0.00 0.00 0.00 69 1009.2
20260510004045 28 0 0.0 4.8 0.00 0.00 0.00 69 1009.2
20260510003546 28 16 0.0 3.2 0.00 0.00 0.00 68 1009.0
20260510003048 28 16 0.0 1.6 0.00 0.00 0.00 68 1009.1
20260510002548 29 0 0.0 3.2 0.00 0.00 0.00 68 1009.1
20260510002045 29 0 0.0 1.6 0.00 0.00 0.00 67 1009.0
20260510001549 29 0 0.0 1.6 0.00 0.00 0.00 67 1008.9
20260510001046 29 0 0.0 4.8 0.00 0.00 0.00 67 1008.9
20260510000546 29 0 0.0 4.8 0.00 0.00 0.00 67 1008.9
20260509235545 29 0 0.0 3.2 0.00 0.00 0.00 65 1008.8
20260509235045 29 0 0.0 4.8 0.00 0.00 0.00 66 1008.7
20260509234600 30 0 0.0 4.8 0.00 0.00 0.00 65 1008.6
20260509234046 30 16 0.0 4.8 0.00 0.00 0.00 65 1008.6
20260509233546 30 16 0.0 4.8 0.00 0.00 0.00 64 1008.7
20260509233050 30 0 0.0 1.6 0.00 0.00 0.00 65 1008.6
20260509232545 30 0 0.0 4.8 0.00 0.00 0.00 63 1008.7
20260509232045 30 0 0.0 4.8 0.00 0.00 0.00 63 1008.6
20260509231553 30 0 0.0 4.8 0.00 0.00 0.00 64 1008.6
20260509231045 30 0 0.0 4.8 0.00 0.00 0.00 63 1008.6
20260509230546 30 16 0.0 4.8 0.00 0.00 0.00 63 1008.6
20260509230052 30 0 1.6 4.8 0.00 0.00 0.00 62 1008.6
20260509225546 30 0 0.0 3.2 0.00 0.00 0.00 63 1008.6
20260509225047 30 16 0.0 3.2 0.00 0.00 0.00 63 1008.6
20260509224556 30 16 0.0 3.2 0.00 0.00 0.00 59 1008.6
20260509224047 30 0 0.0 4.8 0.00 0.00 0.00 60 1008.6
20260509223548 30 0 0.0 4.8 0.00 0.00 0.00 60 1008.7
20260509223100 30 0 1.6 4.8 0.00 0.00 0.00 58 1008.6
20260509222549 30 0 0.0 3.2 0.00 0.00 0.00 58 1008.5
20260509222047 30 14 0.0 3.2 0.00 0.00 0.00 57 1008.6
20260509221557 30 0 0.0 3.2 0.00 0.00 0.00 57 1008.6
20260509221048 30 0 0.0 3.2 0.00 0.00 0.00 52 1008.5
20260509220546 30 0 0.0 3.2 0.00 0.00 0.00 52 1008.5
20260509220049 30 0 1.6 3.2 0.00 0.00 0.00 51 1008.5
20260509215548 30 0 0.0 3.2 0.00 0.00 0.00 54 1008.7
20260509215047 30 0 0.0 3.2 0.00 0.00 0.00 54 1008.5
20260509214551 29 14 0.0 3.2 0.00 0.00 0.00 57 1008.7
20260509214047 29 0 0.0 4.8 0.00 0.00 0.00 56 1008.8
20260509213547 29 14 0.0 4.8 0.00 0.00 0.00 57 1008.8
20260509213053 29 14 0.0 3.2 0.00 0.00 0.00 59 1008.9
20260509212549 29 14 0.0 4.8 0.00 0.00 0.00 60 1009.1
20260509212048 29 14 1.6 4.8 0.00 0.00 0.00 58 1009.0
20260509211554 29 10 0.0 4.8 0.00 0.00 0.00 59 1009.1
20260509211047 28 0 0.0 4.8 0.00 0.00 0.00 57 1009.2
20260509210547 28 0 0.0 6.4 0.00 0.00 0.00 59 1009.2
20260509205547 29 10 0.0 12.9 0.00 0.00 0.00 58 1009.3
20260509205051 29 14 4.8 11.3 0.00 0.00 0.00 59 1009.3
20260509204557 29 9 1.6 8.0 0.00 0.00 0.00 62 1009.3
20260509204048 29 18 3.2 8.0 0.00 0.00 0.00 61 1009.3
20260509203547 29 19 1.6 6.4 0.00 0.00 0.00 56 1009.4
20260509203055 29 22 0.0 6.4 0.00 0.00 0.00 57 1009.3
20260509202548 28 32 0.0 6.4 0.00 0.00 0.00 63 1009.4
20260509202048 28 0 0.0 4.8 0.00 0.00 0.00 63 1009.5
20260509201608 28 33 0.0 6.4 0.00 0.00 0.00 65 1009.6
20260509201047 28 33 1.6 6.4 0.00 0.00 0.00 68 1009.8
20260509200547 29 141 1.6 6.4 0.00 0.00 0.00 65 1010.0
20260509200107 30 34 0.0 8.0 0.00 0.00 0.00 65 1010.1
20260509195548 30 35 0.0 11.3 0.00 0.00 0.00 65 1010.0
20260509195048 30 74 1.6 11.3 0.00 0.00 0.00 63 1009.9
20260509194557 30 0 0.0 6.4 0.00 0.00 0.00 61 1009.9
20260509194045 30 0 0.0 3.2 0.00 0.00 0.00 66 1009.8
20260509193545 30 0 0.0 3.2 0.00 0.00 0.00 68 1009.7
20260509193053 30 0 0.0 3.2 0.00 0.00 0.00 67 1009.7
20260509192545 30 0 0.0 1.6 0.00 0.00 0.00 70 1009.7
20260509192045 30 0 0.0 3.2 0.00 0.00 0.00 69 1009.8
20260509191553 30 0 0.0 3.2 0.00 0.00 0.00 69 1009.8
20260509191044 30 18 0.0 4.8 0.00 0.00 0.00 70 1009.8
20260509190544 30 18 0.0 4.8 0.00 0.00 0.00 70 1009.9
20260509190051 30 18 0.0 3.2 0.00 0.00 0.00 73 1009.8
20260509185545 30 0 0.0 3.2 0.00 0.00 0.00 72 1010.0
20260509185044 30 0 0.0 3.2 0.00 0.00 0.00 70 1010.1
20260509184601 30 0 0.0 4.8 0.00 0.00 0.00 69 1010.1
20260509184045 30 0 0.0 4.8 0.00 0.00 0.00 68 1010.2
20260509183545 30 0 0.0 4.8 0.00 0.00 0.00 70 1010.3
20260509183052 30 18 0.0 6.4 0.00 0.00 0.00 70 1010.4
20260509182545 30 18 1.6 6.4 0.00 0.00 0.00 71 1010.6
20260509182045 29 18 0.0 3.2 0.00 0.00 0.00 75 1010.6
20260509181602 29 18 0.0 1.6 0.00 0.00 0.00 74 1010.7
20260509181046 29 0 0.0 3.2 0.00 0.00 0.00 72 1010.8
20260509180545 29 0 0.0 3.2 0.00 0.00 0.00 70 1010.9
20260509180053 29 18 0.0 4.8 0.00 0.00 0.00 71 1010.8
20260509175545 29 0 0.0 4.8 0.00 0.00 0.00 72 1010.9
20260509175045 29 0 0.0 4.8 0.00 0.00 0.00 72 1010.9
20260509174551 29 0 0.0 3.2 0.00 0.00 0.00 72 1011.0
20260509174045 29 0 0.0 4.8 0.00 0.00 0.00 73 1011.2
20260509173545 29 0 0.0 4.8 0.00 0.00 0.00 73 1011.2
20260509173104 29 18 1.6 4.8 0.00 0.00 0.00 74 1011.4
20260509172546 29 18 1.6 4.8 0.00 0.00 0.00 73 1011.4
20260509172046 28 18 1.6 4.8 0.00 0.00 0.00 74 1011.5
20260509171550 28 18 0.0 4.8 0.00 0.00 0.00 75 1011.5
20260509171044 28 0 0.0 3.2 0.00 0.00 0.00 75 1011.4
20260509170544 28 18 0.0 4.8 0.00 0.00 0.00 78 1011.4
20260509170049 28 0 0.0 6.4 0.00 0.00 0.00 78 1011.4
20260509165547 28 18 0.0 6.4 0.00 0.00 0.00 78 1011.4
20260509165048 28 18 0.0 6.4 0.00 0.00 0.00 80 1011.6
20260509164553 27 17 0.0 6.4 0.00 0.00 0.00 79 1011.5
20260509164045 27 0 1.6 6.4 0.00 0.00 0.00 79 1011.7
20260509163544 27 16 1.6 6.4 0.00 0.00 0.00 80 1011.6
20260509163052 27 0 0.0 4.8 0.00 0.00 0.00 83 1011.6
20260509162545 27 0 0.0 4.8 0.00 0.00 0.00 83 1011.5
20260509162048 26 0 0.0 4.8 0.00 0.00 0.00 84 1011.6
20260509161600 26 47 0.0 4.8 0.00 0.00 0.00 82 1011.6
20260509161044 26 0 0.0 3.2 0.00 0.00 0.00 85 1011.6
20260509160545 26 47 0.0 3.2 0.00 0.00 0.00 85 1011.6
20260509160053 26 0 0.0 3.2 0.00 0.00 0.00 86 1011.6
20260509155545 26 47 0.0 11.3 0.00 0.00 0.00 86 1011.6
20260509155045 25 0 0.0 11.3 0.00 0.00 0.00 86 1011.7
20260509154552 25 26 1.6 4.8 0.00 0.00 0.00 88 1011.8
20260509154047 25 0 0.0 8.0 0.00 0.00 0.00 90 1011.7
20260509153545 25 22 3.2 8.0 0.00 0.00 0.00 90 1011.6
20260509153057 25 24 0.0 6.4 0.00 0.00 0.00 92 1011.7
20260509152545 24 0 1.6 6.4 0.00 0.00 0.00 92 1011.6
20260509152045 24 25 3.2 6.4 0.00 0.00 0.00 93 1011.8
20260509151603 23 15 1.6 6.4 0.00 0.00 0.00 94 1011.9
20260509151045 23 21 0.0 4.8 0.00 0.00 0.00 94 1011.9
20260509150545 23 21 1.6 6.4 0.00 0.00 0.00 95 1011.7
20260509150054 23 21 0.0 6.4 0.00 0.00 0.00 95 1011.7
20260509145545 23 0 0.0 4.8 0.00 0.00 0.00 95 1011.7
20260509145046 23 0 0.0 4.8 0.00 0.00 0.00 96 1011.7
20260509144608 23 0 1.6 4.8 0.00 0.00 0.00 96 1011.6
20260509144045 23 0 0.0 3.2 0.00 0.00 0.00 96 1011.4
20260509143545 23 21 0.0 6.4 0.00 0.00 0.00 96 1011.4
20260509143115 23 21 0.0 6.4 0.00 0.00 0.00 96 1011.4
20260509142544 23 0 0.0 6.4 0.00 0.00 0.00 96 1011.2
20260509142044 22 0 1.6 6.4 0.00 0.00 0.00 96 1011.3